Regional Weather Roundup
Issued by NWS

Home | Current Version | Previous Version | Text Only | Print | Product List | Glossary Off
Versions: 1 2 3 4 5 6 7 8 9 10 11 12 13 14 15 16 17 18 19 20 21 22 23 24 25 26 27 28 29 30 31 32 33 34 35 36 37 38 39 40 41 42 43 44 45 46 47 48 49 50

000
ASUS44 KMEG 261310
RWRTN
TENNESSEE HOURLY STATE WEATHER ROUNDUP
NATIONAL WEATHER SERVICE MEMPHIS TN
800 AM CDT THU MAY 26 2016

TNZ002-004-019-021-049-052-054-088>092-261400-
WEST TENNESSEE

CITY           SKY/WX    TMP DP  RH WIND       PRES   REMARKS
MEMPHIS INTL   MOSUNNY   77  71  82 S12       30.06S
NWS MEMPHIS      N/A     76 N/A N/A MISG        N/A
JACKSON        SUNNY     74  67  78 S14       30.07S
DYERSBURG      PTSUNNY   73  66  78 S7        30.05S
UNION CITY     SUNNY     73  70  88 S7        30.04S
PARIS          SUNNY     72  64  78 SW12      30.07S
LEXINGTON      MOSUNNY   70  64  83 S6        30.09S
$$

TNZ008-025-027-028-033-062-065-066-261400-
NORTH MIDDLE TENNESSEE

CITY           SKY/WX    TMP DP  RH WIND       PRES   REMARKS
NASHVILLE      MOSUNNY   72  63  73 S7        30.12R
CLARKSVILLE    SUNNY     69  65  86 S8        30.08S
SMYRNA         SUNNY     71  65  81 S6        30.13S
COOKEVILLE     PTSUNNY   73  66  78 S6        30.15S
CROSSVILLE     CLOUDY    65  62  90 SE3       30.22R
$$

TNZ061-075-076-078-094-096-097-261400-
SOUTH MIDDLE TENNESSEE

CITY           SKY/WX    TMP DP  RH WIND       PRES   REMARKS
FAYETTEVILLE   SUNNY     73  63  68 VRB7G14   30.16R
TULLAHOMA      SUNNY     73  64  73 S7        30.17R
WINCHESTER     SUNNY     75  63  64 S7        30.16F
MCMINNVILLE    SUNNY     75  68  78 CALM      30.16R
COLUMBIA       SUNNY     75  73  94 SW8       30.11R
SHELBYVILLE    SUNNY     75  64  69 S7        30.16R
$$

TNZ017-018-042-046-047-261400-
NORTHEAST TENNESSEE

CITY           SKY/WX    TMP DP  RH WIND       PRES   REMARKS
TRI CITIES     CLOUDY    69  63  81 CALM      30.21R
$$

TNZ012-013-036-069-073-074-261400-
CENTRAL EAST TENNESSEE

CITY           SKY/WX    TMP DP  RH WIND       PRES   REMARKS
KNOXVILLE      LGT RAIN  68  62  81 W5        30.22R
OAK RIDGE      LGT RAIN  67  64  90 CALM      30.22F FOG
GATLINBURG     PTSUNNY   64  61  88 CALM      30.22R
$$

TNZ083-085-099-261400-
SOUTHEAST TENNESSEE

CITY           SKY/WX    TMP DP  RH WIND       PRES   REMARKS
CHATTANOOGA    MOSUNNY   72  64  76 CALM      30.18S
$$

SKY/WX REPORTED AS FAIR MEANS FEW OR NO CLOUDS BELOW
12 THOUSAND FEET.




USA.gov is the U.S. government's official web portal to all federal, state and local government web resources and services.